THORAD DELTA 1 DEB, 8172

Orbit data source: Space-Track

THORAD DELTA 1 DEB, 8172 is space debris in SSO originally from a launch on Fri, 15 Nov 1974 UTC launched from the Air Force Western Test Range (AFWTR). Debris objects in space refer to the collection of defunct objects orbiting the Earth. Examples of debris include non-operational satellites, rocket bodies, and fragments generated from explosions, collisions, or faulty payload assembly.

Loading next visibility...
THORAD DELTA 1 DEB details
Identifier
8172, 1974-089AN
Orbit
SSO
Last TLE update21 hours ago
Origin
Flag of USGSFC (US)
ManufacturerUnknown
MissionSpacecraft
Bus & MotorUnknown
MassUnknown
Launch date (UTC)
1974-11-15 (50 years ago)
Launch vehicleUnknown
Launch site
Air Force Western Test Range (AFWTR)
Object type
Payload
Rocket body
Debris
Shape & HBRUnknown
Radar Cross SectionMedium (>0.1 m² and <1 m²)

Expand to show TLE details & history

TLE from 21 hours ago
0 THORAD DELTA 1 DEB
1 08172U 74089AN  24360.57232834 -.00000015  00000-0  19239-3 0  9999
2 08172 101.9912   1.0678 0053266  41.7995  73.3953 12.54912925295255
Epoch: 2024-12-25T13:44Z
Definitive object data (Epoch: 2024-12-25T13:44:09.168Z)
Latitude61.83081°
Longitude-96.28881°
Altitude1,442.705 km
Speed7.151 km/s
True Right ascension13h 37m 15s
True Declination61° 42' 00"
Sunlit
Object was in daylight at TLE epoch
Visualization TLE readout
Latitude28.4443°
Longitude-112.06482°
Altitude1,461.829 km
Speed7.127 km/s
Apparent Right ascension15h 29m 49s
Apparent Declination-5° 10' 25"
Sunlit
Object is in daylight
Visualization observer readout
Local Sidereal Time10:19:24
Azimuth101.977° ESE
Elevation6.091°
Doppler factor1
Orbital elements
Apogee altitude1,483.22 km
Perigee altitude1,399.915 km
Semi-major axis7,819.704 km
Eccentricity0.0053266
Inclination101.9912°
RAAN1.0678°
Arg. of periapsis41.7995°
True anomaly73.98133°
Mean anomaly73.3953°
Eccentric anomaly73.68821°
Mean motion3.13876 °/min
BSTAR0.00019239
Orbital period114.7 mins
Loading maneuver chart data...

THORAD DELTA 1 DEB Visibility forecast

Observer location: undefined°, undefined

Span
Click to sort rows by Start time (UTC) header in descending order
Start Az.
Max El. time (UTC)
Max El. Az.
Max El.
End time (UTC)
End Az.
15 mins2024-12-26 12:42:07.906Z27.085° NE2024-12-26 12:50:07.906Z112.518° SE39.324°2024-12-26 12:57:07.906Z178.247° S
13 mins2024-12-26 14:36:07.906Z356.534° N2024-12-26 14:42:07.906Z299.354° NW29.586°2024-12-26 14:49:07.906Z240.894° WSW
7 mins2024-12-26 21:53:07.906Z71.559° E2024-12-26 21:56:07.906Z47.084° ENE15.336°2024-12-26 22:00:07.906Z16.212° NNE
14 mins2024-12-26 23:41:07.906Z147.799° SSE2024-12-26 23:47:07.906Z73.567° E43.484°2024-12-26 23:55:07.906Z346.643° N
10 mins2024-12-27 01:36:07.906Z226.434° WSW2024-12-27 01:40:07.906Z262.142° W21.395°2024-12-27 01:46:07.906Z313.068° NW
|